Погода в Топорке

Россия / Новгородская область     58°33′06″N   33°28′40″E
темп.,
°C
ветер,
м/с
пор.,
м/с
влажн.,
%
обл.,
%
осадки,
мм/ч
давл.,
гПа
погр.,
м
21 апреля, ср
ср2100:00+4в3995100 0.1 1016657
03:00+3всв3697100 1.0 1013574
06:00+2св3798100 1.7 1009421
09:00+2св2599100 3.9 1006274
12:00+2св1299100 1.4 1004181
15:00+2зюз2399100 2.6 1003228
18:00+2зюз3797100 0.3 1003664
21:00+3юз3894100 0.3 1004552
22 апреля, чт
чт2200:00+3ююв2895100 0.0 1004256
03:00+2ю289491 0.0 1005196
06:00+3ююв3995100 0.5 1005330
09:00+8юз478230 0.6 1006591
12:00+11юз476499 0.0 10071048
15:00+14юз474773 0.1 10082207
18:00+13ююз24516 0.0 1007172
21:00+9ююв4147022 0.0 1007369
23 апреля, пт
пт2300:00+7ююв258989 0.3 1007120
03:00+6ююз2796100 0.4 1007325
06:00+6ю3789100 2.1 1007348
09:00+8ю477280 2.2 10081280
12:00+7ю5872100 0.5 10091132
15:00+9ююз5855100 0.8 10091908
18:00+9юз365297 0.1 10091561
21:00+4зюз2271100 0.2 101026
24 апреля, сб
сб2400:00+4ююз2274100 0.0 101065
03:00+3ююз1177100 0.0 100924
06:00+3зюз1280100 0.0 100886
09:00+4з2373100 0.0 1007525
12:00+6з3358100 0.0 10071130
15:00+7зсз3548100 0.0 10051719
18:00+7зсз3450100 0.1 10051471
21:00+3з2568100 0.1 1005102
25 апреля, вс
вс2500:00+1з2380100 0.0 100457
03:000зюз248743 0.0 100495
06:00−1зюз26905 0.0 1003166
09:00+4зюз346361 0.0 10031038
12:00+6зюз455491 0.3 10031548
15:00+7юз465397 1.0 10031756
18:00+6юз466159 0.6 10031397
21:00+2ююз22835 0.7 100445